Location: Colonia Mina de C?rbuni
(46.1667°N, 22.7167°E)
Time: 17:26:12
(UTC+00:00)

Lacrosse 5 rocket - Pass Details

Date: 04 February 2023
Orbit: 455 x 612 km, 57.0° (Epoch: 29 March)

Event Time Altitude Azimuth Distance (km) Brightness Sun altitude
Rises 17:44:22 0° 306° (NW) 2,489 5.5 -22.1°
Reaches altitude 10° 17:46:30 10° 302° (WNW) 1,623 4.5 -22.5°
Maximum altitude 17:50:03 54° 225° (SW) 584 1.6 -23.1°
Enters shadow 17:50:09 54° 217° (SW) 586 1.5 -23.1°
